Location: ?????
(31.7405°N, 35.1927°E)
Time: 02:49:37
(UTC+00:00)

Cosmos 1943 Rocket - Pass Details

Date: 17 February 2020
Orbit: 813 x 842 km, 71.0° (Epoch: 03 April)

Event Time Altitude Azimuth Distance (km) Brightness Sun altitude
Rises 02:51:27 0° 345° (NNW) 3,340 5.1 -19.4°
Reaches altitude 10° 02:53:56 10° 350° (N) 2,405 4.4 -18.9°
Maximum altitude 02:59:19 53° 67° (ENE) 989 2.9 -17.8°
Drops below altitude 10° 03:04:40 10° 144° (SE) 2,397 5.1 -16.6°
Sets 03:07:08 0° 149° (SSE) 3,329 5.8 -16.1°
